Location: Landeleau
(48.2273°N, 3.7285°W)
Time: 18:23:56
(UTC+00:00)

ATLAS CENTAUR R/B - Pass Details

Date: 30 March 2020
Orbit: 471 x 675 km, 64.7° (Epoch: 01 June)

Event Time Altitude Azimuth Distance (km) Brightness Sun altitude
Rises 19:43:55 0° 289° (WNW) 2,865 7.3 -10.7°
Reaches altitude 10° 19:48:05 10° 326° (NNW) 1,901 4.9 -11.4°
Maximum altitude 19:49:11 11° 341° (NNW) 1,831 4.5 -11.5°
Drops below altitude 10° 19:50:16 10° 357° (N) 1,868 4.3 -11.7°
Sets 19:54:13 0° 35° (NE) 2,702 4.7 -12.3°
